Location: Newark
(48.2308°N, 120.8549°W)
Time: 14:42:39
(UTC+00:00)

Transit 2A Rocket - Pass Details

Date: 03 June 2020
Orbit: 584 x 919 km, 66.7° (Epoch: 07 July)

Event Time Altitude Azimuth Distance (km) Brightness Sun altitude
Rises 10:15:09 0° 312° (NW) 3,373 8.5 -13.3°
Reaches altitude 10° 10:19:14 10° 341° (NNW) 2,510 8.2 -12.9°
Maximum altitude 10:21:42 13° 6° (N) 2,358 8.5 -12.7°
Drops below altitude 10° 10:24:14 10° 31° (NNE) 2,576 9.3 -12.5°
Sets 10:28:33 0° 59° (ENE) 3,552 9.7 -12.1°
